Agua de Enmedio, Mexico

10:40 PM MST on March 24, 2017 (GMT -0700)
Agua de Enmedio

Weather History for 76405 - March, 2014

Change the Weather History Date:

Tuesday, March 18, 2014

  Actual Average Record
Temperature  
Mean Temperature 76 °F -  
Max Temperature 98 °F 83 °F - ()
Min Temperature 55 °F 56 °F - ()
Cooling Degree Days 12    
Growing Degree Days 26 (Base 50)    
Moisture  
Dew Point 37 °F    
Average Humidity 28    
Maximum Humidity 77    
Minimum Humidity 7    
Precipitation  
Precipitation 0.00 in - - ()
Sea Level Pressure  
Sea Level Pressure 29.84 in    
Wind  
Wind Speed 6 mph ()    
Max Wind Speed 14 mph    
Max Gust Speed -    
Visibility 9.9 miles    
Events      
T = Trace of Precipitation, MM = Missing Value Source: Averaged Metar Reports

Daily Weather History Graph

Daily Weather History Graph

Search for Another Location

Airport or City:

Trip Planner

Search our weather history database for the weather conditions in past years. The results will help you decide how hot, cold, wet, or windy it might be!

Date:

Astronomy

Mar. 18, 2014 Rise Set
Actual Time 6:27 AM MST 6:31 PM MST
Civil Twilight 6:04 AM MST 6:54 PM MST
Nautical Twilight 5:38 AM MST 7:20 PM MST
Astronomical Twilight 5:11 AM MST 7:47 PM MST
Moon 8:34 PM MST (3/18) 7:33 AM MST (3/18)
Length of Visible Light 12h 49m
Length of Day
12h 04m
Waning Gibbous, 96% of the Moon is Illuminated
Mar 18
Waning Gibbous
Mar 23
Last Quarter
Mar 30
New
Apr 7
First Quarter
Apr 15
Full

Hourly Weather History & Observations

Time (MST) Temp. Dew Point Humidity Pressure Visibility Wind Dir Wind Speed Gust Speed Precip Events Conditions
1:45 AM 62 °F 41 °F 34% 29.79 in 2 mi South 2.2 mph - -  
4:50 AM 65 °F 37 °F 24% 29.78 in 2 mi South 4.5 mph - -  
5:52 AM 51.8 °F 24.8 °F 35% 29.79 in 10.0 mi South 9.2 mph - N/A   Clear
7:46 AM 60.8 °F 30.2 °F 31% 29.83 in 10.0 mi South 9.2 mph - N/A   Clear
7:50 AM 67 °F 42 °F 28% 29.82 in 12 mi South 6.7 mph - -  
8:40 AM 71.6 °F 30.2 °F 22% 29.85 in 10.0 mi South 10.4 mph - N/A   Clear
9:40 AM 78.8 °F 32.0 °F 18% 29.87 in 10.0 mi South 6.9 mph - N/A   Clear
10:40 AM 84.2 °F 28.4 °F 13% 29.86 in 10.0 mi SE 4.6 mph - N/A   Clear
10:50 AM 88 °F 43 °F 12% 29.86 in 19 mi SSW 4.5 mph - -  
11:46 AM 87.8 °F 23.0 °F 9% 29.84 in 10.0 mi SW 6.9 mph - N/A   Clear
12:44 PM 91.4 °F 19.4 °F 7% 29.81 in 10.0 mi South 4.6 mph - N/A   Clear
1:44 PM 93.2 °F 21.2 °F 7% 29.79 in 10.0 mi WSW 6.9 mph - N/A   Clear
1:50 PM 97 °F 41 °F 8% 29.79 in 19 mi SW 4.5 mph - -  
2:47 PM 89.6 °F 19.4 °F 8% 29.79 in 10.0 mi SW 13.8 mph - N/A   Clear
3:40 PM 89.6 °F 23.0 °F 9% 29.80 in 10.0 mi SW 11.5 mph - N/A   Clear
4:46 PM 86.0 °F 17.6 °F 8% 29.81 in 10.0 mi SSW 9.2 mph - N/A   Clear
4:50 PM 92 °F 45 °F 12% 29.77 in 19 mi WSW 8.9 mph - -  
5:47 PM 82.4 °F 26.6 °F 13% 29.84 in 10.0 mi SW 13.8 mph - N/A   Clear
6:53 PM 77.0 °F 39.2 °F 26% 29.87 in 10.0 mi SSW 9.2 mph - N/A   Clear
7:43 PM 71.6 °F 55.4 °F 57% 29.88 in 10.0 mi South 13.8 mph - N/A   Clear
7:50 PM 75 °F 59 °F 49% 29.87 in 2 mi South 8.9 mph - -  
8:40 PM 68.0 °F 57.2 °F 68% 29.92 in 10.0 mi South 9.2 mph - N/A   Clear
9:47 PM 64.4 °F 57.2 °F 77% 29.94 in 10.0 mi South 6.9 mph - N/A   Clear
10:45 PM 68 °F 58 °F 64% 29.91 in 2 mi SSE 6.7 mph - -  
10:46 PM 64.4 °F 55.4 °F 73% 29.95 in 10.0 mi South 9.2 mph - N/A   Clear